Inquirer Daily News

Weather

Get conditions and forecasts for any City, State, ZIP code or Country:  
Trenton, NJ
on Tuesday, November 27, 2012

Tuesday
Previous Day Next Day
Daily Summary
 ActualAverageRecord
Temperature
Mean Temperature °F 42°F  
Max Temperature 37°F 50°F 73°F (1896)
Min Temperature 31°F 34°F 12°F (1932)
Degree Days
Heating Degree Days 31 23  
Month to date heating degree days 612 508  
Since 1 July heating degree days 919 905  
Cooling Degree Days 0 0  
Month to date cooling degree days 0 0  
Year to date cooling degree days 1234 965  
Moisture
Dew Point 31°F   
Average Humidity 80    
Maximum Humidity 96    
Minimum Humidity 64    
Precipitation
Precipitation 0.60 in 0.13 in 1.87 in (2013)
Month to date precipitation 1.18 2.91  
Year to date precipitation 33.23 42.34  
Wind
Wind Speed 5 mph   
Max Wind Speed 10 mph   
Max Gust Speed 14 mph   
Visibility 6 miles   
Events Rain , Snow   

Key: T is trace of precipitation, MM is missing value
Source: NWS Daily Summary
Time(EST)TemperatureDew PointHumidity Pressure Visibility Wind DirectionWind SpeedGust SpeedPrecipitationEvents Conditions
12:53 AM 32.0°F 24.1°F 73% 30.22 in 10.0 miles Calm Calm - N/A   Overcast
2:53 AM 34.0°F 26.1°F 73% 30.24 in 10.0 miles Calm Calm - N/A   Overcast
3:53 AM 35.1°F 26.1°F 70% 30.22 in 10.0 miles Calm Calm - N/A   Overcast
4:53 AM 36.0°F 26.1°F 67% 30.23 in 10.0 miles Calm Calm - N/A   Overcast
5:53 AM 37.0°F 26.1°F 65% 30.24 in 10.0 miles NNE 4.6 mph - N/A   Overcast
6:53 AM 36.0°F 30.0°F 79% 30.25 in 9.0 miles Calm Calm - 0.00 in Rain Light Rain
7:01 AM 35.6°F 30.2°F 81% 30.27 in 7.0 miles Calm Calm - 0.00 in Rain Light Rain
7:53 AM 36.0°F 32.0°F 86% 30.26 in 3.0 miles Calm Calm - 0.07 in Rain Light Rain
8:36 AM 35.6°F 33.8°F 93% 30.26 in 3.0 miles East 5.8 mph - 0.05 in Rain Light Rain
8:53 AM 34.0°F 32.0°F 92% 30.25 in 2.5 miles NE 5.8 mph - 0.06 in Snow Light Snow
9:04 AM 33.8°F 32.0°F 93% 30.25 in 2.0 miles NE 4.6 mph - 0.01 in Snow Light Snow
9:53 AM 34.0°F 32.0°F 92% 30.23 in 2.5 miles ENE 5.8 mph - 0.07 in Rain Rain
10:04 AM 33.8°F 32.0°F 93% 30.25 in 1.8 miles NE 4.6 mph - 0.02 in Snow Light Snow
10:11 AM 33.8°F 32.0°F 93% 30.26 in 1.2 miles NE 5.8 mph - 0.03 in Snow Light Snow
10:28 AM 33.8°F 32.0°F 93% 30.26 in 0.8 miles NE 4.6 mph - 0.06 in Snow Light Snow
10:36 AM 33.8°F 30.2°F 87% 30.27 in 0.8 miles NNE 5.8 mph - 0.07 in Snow Light Snow
10:53 AM 33.1°F 32.0°F 96% 30.25 in 0.8 miles NE 4.6 mph - 0.11 in Snow Light Snow
11:11 AM 33.8°F 30.2°F 87% 30.26 in 1.0 miles NNE 5.8 mph - 0.03 in Snow Light Snow
11:32 AM 33.8°F 30.2°F 87% 30.25 in 1.2 miles NNE 6.9 mph - 0.07 in Snow Light Snow
11:50 AM 33.8°F 32.0°F 93% 30.24 in 2.0 miles NE 6.9 mph - 0.11 in Rain Light Rain
11:53 AM 33.1°F 32.0°F 96% 30.22 in 2.5 miles NE 5.8 mph - 0.11 in Rain Rain
12:12 PM 33.8°F 32.0°F 93% 30.22 in 3.0 miles NE 8.1 mph - 0.03 in Rain Rain
12:22 PM 33.8°F 32.0°F 93% 30.22 in 2.5 miles NE 6.9 mph - 0.04 in Rain Rain
12:31 PM 33.8°F 32.0°F 93% 30.22 in 2.5 miles NE 6.9 mph - 0.05 in Rain Light Rain
12:53 PM 33.1°F 32.0°F 96% 30.20 in 3.0 miles NE 8.1 mph - 0.08 in Rain Light Rain
1:53 PM 34.0°F 32.0°F 92% 30.19 in 3.0 miles NE 6.9 mph - 0.04 in Rain Light Rain
2:53 PM 34.0°F 32.0°F 92% 30.19 in 4.0 miles NE 5.8 mph - 0.04 in Rain Light Rain
3:53 PM 34.0°F 32.0°F 92% 30.18 in 6.0 miles NE 9.2 mph - 0.02 in Rain Light Rain
4:53 PM 34.0°F 32.0°F 92% 30.18 in 5.0 miles NE 8.1 mph - 0.00 in   Overcast
5:53 PM 35.1°F 32.0°F 89% 30.18 in 8.0 miles NNE 5.8 mph - 0.00 in   Overcast
6:53 PM 35.1°F 33.1°F 92% 30.19 in 10.0 miles NNE 6.9 mph - N/A   Overcast
7:00 PM 35.6°F 33.8°F 93% 30.20 in 10.0 miles NNE 4.6 mph - N/A   Overcast
7:50 PM 35.6°F 33.8°F 93% 30.21 in 10.0 miles North 5.8 mph - N/A   Overcast
7:53 PM 35.1°F 33.1°F 92% 30.21 in 10.0 miles North 5.8 mph - N/A   Overcast
8:08 PM 35.6°F 33.8°F 93% 30.22 in 10.0 miles North 5.8 mph - N/A   Overcast
8:53 PM 35.1°F 33.1°F 92% 30.22 in 8.0 miles North 4.6 mph - N/A   Overcast
9:53 PM 35.1°F 33.1°F 92% 30.21 in 8.0 miles North 4.6 mph - N/A   Overcast
10:17 PM 35.6°F 32.0°F 87% 30.21 in 8.0 miles North 6.9 mph - N/A   Overcast
10:53 PM 35.1°F 32.0°F 89% 30.21 in 10.0 miles North 6.9 mph - N/A   Overcast
11:53 PM 35.1°F 32.0°F 89% 30.21 in 10.0 miles NNE 9.2 mph - N/A   Overcast
Astronomy
Sunrise:06:59 AM (EST) Moon Rise:04:04 PM (EST)11/27
Sunset:04:34 PM (EST) Moon Set:06:01 AM (EST)11/27
Moon Phase
Nov. 27 Nov. 28 Dec. 06 Dec. 13 Dec. 20

Copyright © 2014 The Weather Underground, Inc.